Location: Home
(42.5358°N, 72.7383°W)
Time: 16:48:56
(UTC-04:00)

Kosmos-337 - Pass Details

Date: 04 July 2022
Orbit: 1467 x 1552 km, 74.0° (Epoch: 18 August)

Event Time Altitude Azimuth Distance (km) Brightness Sun altitude
Rises 00:17:54 0° 342° (NNW) 4,734 ? -24.0°
Reaches altitude 10° 00:21:28 10° 354° (N) 3,746 ? -24.1°
Maximum altitude 00:29:16 30° 52° (NE) 2,507 ? -24.3°
Drops below altitude 10° 00:36:55 10° 110° (ESE) 3,700 ? -24.4°
Enters shadow 00:38:21 - 116° (ESE) 4,083 ? -24.5°
